Content
SEND FEEDBACK

Daily
Averages
Monthly
Summary
United States of America

RAPID CITY, SOUTH DAKOTA


Home > North America > United States > South Dakota
Elevation: 3162 feet     Latitude: 44 03N     Longitude: 103 04W

WEATHER
 
SELECT A DAY
Number of Records: 200,374;   Date Range: 1/1/95 - 8/12/14
 
SHARE

PRINT THIS DATA

[ ← Previous Day ]
WEATHER ALMANAC - FEBRUARY 1, 2013
[ Next Day → ]
[ °C ]   °F
Weather ElementAverageHighLow
Temperature30.7 °F41 °F (11:52 am)9 °F (1:52 am)
Dewpoint23.2 °F32 °F (11:52 am)3.9 °F (1:52 am)
Humidity74 %81 % (4:52 am)62 % (10:52 pm)
Barometer30.10 in30.20 in (1:52 am)29.92 in (9:12 am)
Wind Speed6.7 mph20.7 mph (12:52 pm)
Wind Gust29.9 mph (2:52 pm)
Weather ElementAverage
Visibility10 mi
Wind DirectionS (180 °)

Weather ElementTotal
Precipitation---
Heating Degree Days40 (Base 65)
Averaged from 24 records on February 1, 2013
WEATHER CONDITIONS BREAKOUT
WIND DIRECTION BREAKOUT
WEATHER BY HOUR - FEBRUARY 1, 2013
[ °C ]   °F
Local TimeTemperatureDewpointHumidityBarometerVisibilityWind DirectionWind SpeedGust SpeedPrecipitationEventsConditions
1:52 AM9.0 °F3.9 °F80 %30.20 in10.0 miESE (120°)4.6 mphOvercast
2:52 AM10.0 °F5.0 °F80 %30.18 in10.0 miESE (120°)3.5 mphOvercast
3:52 AM10.9 °F5.0 °F77 %30.16 in10.0 miCalmScattered Clouds
4:52 AM10.9 °F6.1 °F81 %30.14 in10.0 miCalmPartly Cloudy
5:52 AM19.9 °F14.0 °F78 %30.10 in10.0 miCalmPartly Cloudy
6:52 AM27.0 °F19.9 °F75 %30.09 in10.0 miCalmMostly Cloudy
7:52 AM28.9 °F21.9 °F75 %30.07 in10.0 miCalmMostly Cloudy
8:52 AM30.0 °F23.0 °F75 %30.08 in10.0 miCalmPartly Cloudy
9:12 AM35.6 °F24.8 °F65 %29.92 in10.0 miCalmMostly Cloudy
9:52 AM37.0 °F26.1 °F65 %30.07 in10.0 miCalmPartly Cloudy
10:52 AM39.9 °F30.0 °F68 %30.06 in10.0 miNNE (30°)4.6 mphScattered Clouds
11:52 AM41.0 °F32.0 °F70 %30.05 inNorth (350°)11.5 mph
12:52 PM39.9 °F30.9 °F70 %30.05 inNNW (340°)20.7 mph28.8 mphOvercast
1:52 PM39.0 °F32.0 °F76 %30.06 in10.0 miNNW (340°)19.6 mph28.8 mphMostly Cloudy
2:52 PM37.9 °F30.9 °F76 %30.08 in10.0 miNNW (340°)20.7 mph29.9 mphPartly Cloudy
3:52 PM37.0 °F30.9 °F79 %30.10 in10.0 miNW (310°)12.7 mphPartly Cloudy
4:52 PM37.0 °F28.9 °F73 %30.11 in10.0 miNorth (350°)11.5 mphScattered Clouds
5:52 PM36.0 °F28.9 °F76 %30.13 in10.0 miNNW (330°)11.5 mphOvercast
6:52 PM35.1 °F28.9 °F78 %30.12 in10.0 miNW (320°)8.1 mphOvercast
7:52 PM35.1 °F27.0 °F72 %30.12 in10.0 miWest (270°)4.6 mphOvercast
8:52 PM34.0 °F27.0 °F75 %30.13 in10.0 miWSW (240°)3.5 mphOvercast
9:52 PM34.0 °F27.0 °F75 %30.13 in10.0 miWSW (240°)4.6 mphOvercast
10:52 PM37.0 °F25.0 °F62 %30.13 in10.0 miNW (320°)9.2 mphMostly Cloudy
11:52 PM34.0 °F27.0 °F75 %30.14 inWNW (300°)10.4 mphMostly Cloudy
Hourly data recorded from KRAP, located miles away from Rapid City, South Dakota







STORIES FROM OUR PARTNERS